Regional Weather Roundup
Issued by NWS Northern Indiana

Home | Current Version | Previous Version | Graphics & Text | Print | Product List | Glossary On
Versions: 1 2 3 4 5 6 7 8 9 10 11 12 13 14 15 16 17 18 19 20 21 22 23 24 25 26 27 28 29 30 31 32 33 34 35 36 37 38 39 40 41 42 43 44 45 46 47 48 49 50
000
ASUS43 KIWX 030500
RWRIWX

KIWX WEATHER ROUNDUP
NATIONAL WEATHER SERVICE NORTHERN INDIANA
100 AM EDT MON AUG 03 2015

NOTE: "FAIR" INDICATES FEW OR NO CLOUDS BELOW 12,000 FEET WITH NO
SIGNIFICANT WEATHER AND/OR OBSTRUCTIONS TO VISIBILITY.

* THESE STATIONS ARE NOT UNDER NWS QUALITY CONTROL. THEY ALSO MAY NOT
  REPORT WEATHER SUCH AS PRECIPITATION OR FOG.

INZ001>027-030600-
NORTHERN INDIANA

CITY           SKY/WX    TMP DP  RH WIND       PRES   REMARKS
GARY*          CLOUDY    66  64  93 W3        29.79R
VALPARAISO     HVY RAIN  64  63  94 N32G51    29.81R VSB 3/4
KNOX*          MOCLDY    77  61  57 NW24G43   29.77R
SOUTH BEND     RAIN      65  62  90 SW15G23   29.75F FOG
GOSHEN         TSTM      63  61  93 NW17G31   29.81R VSB 1
MONTICELLO*    PTCLDY    77  73  87 SW13G18   29.76F
LOGANSPORT*    PTCLDY    77  64  65 SW16G22   29.78F
WARSAW*        CLOUDY    79  70  73 W8        29.76R
ANGOLA*        CLOUDY   N/A N/A N/A VRB5      29.84R
FORT WAYNE     CLOUDY    77  66  68 SW16      29.77F

$$
INZ028>050-030600-
CENTRAL INDIANA

CITY           SKY/WX    TMP DP  RH WIND       PRES   REMARKS
LAFAYETTE      MOCLDY    77  71  82 SW9       29.77F
KOKOMO*        PTCLDY    77  66  69 SW14G24   29.79F
MUNCIE*        PTCLDY    75  62  64 SW12      29.83S
INDIANAPOLIS   MOCLDY    76  64  66 SW12      29.83R

$$
MIZ043>046-050>051-056>058-064>065-071>073-077>080-030600-
SOUTHWEST LOWER MICHIGAN

CITY           SKY/WX    TMP DP  RH WIND       PRES   REMARKS
BATTLE CREEK   LGT RAIN  65  62  90 SW9       29.72R
BENTON HARBOR  CLOUDY    66  64  93 CALM      29.69R
COLDWATER*     RAIN      63  61  94 SW9G17    29.77S
HILLSDALE*     RAIN      62  62 100 SE6       29.80F
HOLLAND        CLOUDY    69  66  90 NW5       29.68R
GRAND RAPIDS   CLOUDY    66  66 100 SW7       29.68F
KALAMAZOO      TSTM      66  61  84 VRB5      29.70S
STURGIS*       RAIN      63  61  94 S10       29.73F
THREE RIVERS*  LGT RAIN  65  60  85 S7        29.68F

$$
OHZ001>008-015>018-024>025-030600-
NORTHWEST OHIO

CITY           SKY/WX    TMP DP  RH WIND       PRES   REMARKS
DEFIANCE       CLOUDY    70  58  65 N14G23    29.83R
FINDLAY        PTCLDY    77  61  57 SW15      29.79R
TOLEDO EXPRESS LGT RAIN  67  60  78 N15G23    29.85R
TOLEDO METCALF LGT RAIN  70  57  63 N29G45    29.84R
LIMA           PTCLDY    75  62  64 SW12      29.82R

$$
AND FOR LAKE MICHIGAN COASTAL AND OPEN LAKE BUOY OBSERVATIONS

STATION/POSITION TEMP    WIND        PRES    VSBY  WAVE
                 AIR SEA DIR/SP/G                  HT/PER
                 (F)     (DEG/KT/KT) (MB)    (MI)  (FT/S)
CALUMET HARBOR    73      10/ 14/ 25   N/A
MICHIGAN CITY     70     340/ 28/ 37   N/A
BURNS HARBOR      65     300/ 34     1007.8R
SAINT JOSEPH      67     160/  7/ 15 1005.8F
4 MI NW BRIDGMAN  66 73   40/  8/ 14   N/A           6/ 5
MICHIGAN CITY     70 73   10/ 21/ 29   N/A           5/ 4

$$
&&


USA.gov is the U.S. government's official web portal to all federal, state and local government web resources and services.